Year,Month,Day,Hour,Minute,Value (Times are PST for temperature in C)
2006,05,03,00,00,5.60
2006,05,03,00,01,5.50
2006,05,03,00,02,5.50
2006,05,03,00,03,5.50
2006,05,03,00,04,5.40
2006,05,03,00,05,5.40
2006,05,03,00,06,5.40
2006,05,03,00,07,5.40
2006,05,03,00,08,5.30
2006,05,03,00,09,5.30
2006,05,03,00,10,5.30
2006,05,03,00,11,5.30
2006,05,03,00,12,5.30
2006,05,03,00,13,5.40
2006,05,03,00,14,5.40
2006,05,03,00,15,5.40
2006,05,03,00,16,5.40
2006,05,03,00,17,5.40
2006,05,03,00,18,5.40
2006,05,03,00,19,5.50
2006,05,03,00,20,5.50
2006,05,03,00,21,5.50
2006,05,03,00,22,5.50
2006,05,03,00,23,5.50
2006,05,03,00,24,5.50
2006,05,03,00,25,5.50
2006,05,03,00,26,5.50
2006,05,03,00,27,5.50
2006,05,03,00,28,5.50
2006,05,03,00,29,5.50
2006,05,03,00,30,5.40
2006,05,03,00,31,5.40
2006,05,03,00,32,5.40
2006,05,03,00,33,5.40
2006,05,03,00,34,5.30
2006,05,03,00,35,5.30
2006,05,03,00,36,5.30
2006,05,03,00,37,5.30
2006,05,03,00,38,5.30
2006,05,03,00,39,5.30
2006,05,03,00,40,5.30
2006,05,03,00,41,5.30
2006,05,03,00,42,5.30
2006,05,03,00,43,5.30
2006,05,03,00,44,5.30
2006,05,03,00,45,5.30
2006,05,03,00,46,5.30
2006,05,03,00,47,5.30
2006,05,03,00,48,5.30
2006,05,03,00,49,5.20
2006,05,03,00,50,5.20
2006,05,03,00,51,5.20
2006,05,03,00,52,5.20
2006,05,03,00,53,5.20
2006,05,03,00,54,5.10
2006,05,03,00,55,5.10
2006,05,03,00,56,5.10
2006,05,03,00,57,5.10
2006,05,03,00,58,5.10
2006,05,03,00,59,5.10
2006,05,03,01,00,5.10
2006,05,03,01,01,5.10
2006,05,03,01,02,5.00
2006,05,03,01,03,4.90
2006,05,03,01,04,4.90
2006,05,03,01,05,4.90
2006,05,03,01,06,4.90
2006,05,03,01,07,4.90
2006,05,03,01,08,4.90
2006,05,03,01,09,4.90
2006,05,03,01,10,4.90
2006,05,03,01,11,4.90
2006,05,03,01,12,4.90
2006,05,03,01,13,4.90
2006,05,03,01,14,4.90
2006,05,03,01,15,4.90
2006,05,03,01,16,4.80
2006,05,03,01,17,4.80
2006,05,03,01,18,4.80
2006,05,03,01,19,4.80
2006,05,03,01,20,4.80
2006,05,03,01,21,4.80
2006,05,03,01,22,4.80
2006,05,03,01,23,4.70
2006,05,03,01,24,4.70
2006,05,03,01,25,4.70
2006,05,03,01,26,4.70
2006,05,03,01,27,4.70
2006,05,03,01,28,4.70
2006,05,03,01,29,4.70
2006,05,03,01,30,4.70
2006,05,03,01,31,4.70
2006,05,03,01,32,4.60
2006,05,03,01,33,4.60
2006,05,03,01,34,4.60
2006,05,03,01,35,4.60
2006,05,03,01,36,4.60
2006,05,03,01,37,4.60
2006,05,03,01,38,4.60
2006,05,03,01,39,4.60
2006,05,03,01,40,4.60
2006,05,03,01,41,4.50
2006,05,03,01,42,4.50
2006,05,03,01,43,4.50
2006,05,03,01,44,4.50
2006,05,03,01,45,4.50
2006,05,03,01,46,4.50
2006,05,03,01,47,4.40
2006,05,03,01,48,4.40
2006,05,03,01,49,4.40
2006,05,03,01,50,4.40
2006,05,03,01,51,4.40
2006,05,03,01,52,4.40
2006,05,03,01,53,4.30
2006,05,03,01,54,4.30
2006,05,03,01,55,4.30
2006,05,03,01,56,4.30
2006,05,03,01,57,4.30
2006,05,03,01,58,4.20
2006,05,03,01,59,4.20
2006,05,03,02,00,4.20
2006,05,03,02,01,4.20
2006,05,03,02,02,4.20
2006,05,03,02,03,4.20
2006,05,03,02,04,4.20
2006,05,03,02,05,4.20
2006,05,03,02,06,4.20
2006,05,03,02,07,4.20
2006,05,03,02,08,4.20
2006,05,03,02,09,4.20
2006,05,03,02,10,4.20
2006,05,03,02,11,4.20
2006,05,03,02,12,4.20
2006,05,03,02,13,4.20
2006,05,03,02,14,4.10
2006,05,03,02,15,4.10
2006,05,03,02,16,4.10
2006,05,03,02,17,4.10
2006,05,03,02,18,4.10
2006,05,03,02,19,4.10
2006,05,03,02,20,4.10
2006,05,03,02,21,4.10
2006,05,03,02,22,4.10
2006,05,03,02,23,4.00
2006,05,03,02,24,4.00
2006,05,03,02,25,4.00
2006,05,03,02,26,4.00
2006,05,03,02,27,4.00
2006,05,03,02,28,4.00
2006,05,03,02,29,4.00
2006,05,03,02,30,4.00
2006,05,03,02,31,3.90
2006,05,03,02,32,3.90
2006,05,03,02,33,3.90
2006,05,03,02,34,3.90
2006,05,03,02,35,3.90
2006,05,03,02,36,3.90
2006,05,03,02,37,3.90
2006,05,03,02,38,3.80
2006,05,03,02,39,3.80
2006,05,03,02,40,3.80
2006,05,03,02,41,3.80
2006,05,03,02,42,3.80
2006,05,03,02,43,3.80
2006,05,03,02,44,3.80
2006,05,03,02,45,3.80
2006,05,03,02,46,3.80
2006,05,03,02,47,3.80
2006,05,03,02,48,3.80
2006,05,03,02,49,3.80
2006,05,03,02,50,3.80
2006,05,03,02,51,3.80
2006,05,03,02,52,3.80
2006,05,03,02,53,3.80
2006,05,03,02,54,3.80
2006,05,03,02,55,3.80
2006,05,03,02,56,3.80
2006,05,03,02,57,3.70
2006,05,03,02,58,3.70
2006,05,03,02,59,3.70
2006,05,03,03,00,3.70
2006,05,03,03,01,3.70
2006,05,03,03,02,3.70
2006,05,03,03,03,3.70
2006,05,03,03,04,3.70
2006,05,03,03,05,3.70
2006,05,03,03,06,3.70
2006,05,03,03,07,3.70
2006,05,03,03,08,3.70
2006,05,03,03,09,3.70
2006,05,03,03,10,3.70
2006,05,03,03,11,3.70
2006,05,03,03,12,3.70
2006,05,03,03,13,3.70
2006,05,03,03,14,3.70
2006,05,03,03,15,3.60
2006,05,03,03,16,3.60
2006,05,03,03,17,3.60
2006,05,03,03,18,3.60
2006,05,03,03,19,3.60
2006,05,03,03,20,3.60
2006,05,03,03,21,3.50
2006,05,03,03,22,3.50
2006,05,03,03,23,3.50
2006,05,03,03,24,3.50
2006,05,03,03,25,3.50
2006,05,03,03,26,3.50
2006,05,03,03,27,3.40
2006,05,03,03,28,3.40
2006,05,03,03,29,3.40
2006,05,03,03,30,3.40
2006,05,03,03,31,3.40
2006,05,03,03,32,3.40
2006,05,03,03,33,3.30
2006,05,03,03,34,3.30
2006,05,03,03,35,3.30
2006,05,03,03,36,3.30
2006,05,03,03,37,3.30
2006,05,03,03,38,3.30
2006,05,03,03,39,3.30
2006,05,03,03,40,3.30
2006,05,03,03,41,3.30
2006,05,03,03,42,3.20
2006,05,03,03,43,3.20
2006,05,03,03,44,3.20
2006,05,03,03,45,3.20
2006,05,03,03,46,3.20
2006,05,03,03,47,3.20
2006,05,03,03,48,3.20
2006,05,03,03,49,3.10
2006,05,03,03,50,3.10
2006,05,03,03,51,3.10
2006,05,03,03,52,3.10
2006,05,03,03,53,3.10
2006,05,03,03,54,3.10
2006,05,03,03,55,3.10
2006,05,03,03,56,3.10
2006,05,03,03,57,3.10
2006,05,03,03,58,3.10
2006,05,03,03,59,3.10
2006,05,03,04,00,3.10
2006,05,03,04,01,3.10
2006,05,03,04,02,3.10
2006,05,03,04,03,3.10
2006,05,03,04,04,3.10
2006,05,03,04,05,3.10
2006,05,03,04,06,3.10
2006,05,03,04,07,3.10
2006,05,03,04,08,3.10
2006,05,03,04,09,3.10
2006,05,03,04,10,3.10
2006,05,03,04,11,3.10
2006,05,03,04,12,3.10
2006,05,03,04,13,3.10
2006,05,03,04,14,3.10
2006,05,03,04,15,3.10
2006,05,03,04,16,3.10
2006,05,03,04,17,3.10
2006,05,03,04,18,3.10
2006,05,03,04,19,3.10
2006,05,03,04,20,3.10
2006,05,03,04,21,3.10
2006,05,03,04,22,3.10
2006,05,03,04,23,3.10
2006,05,03,04,24,3.10
2006,05,03,04,25,3.10
2006,05,03,04,26,3.10
2006,05,03,04,27,3.10
2006,05,03,04,28,3.10
2006,05,03,04,29,3.00
2006,05,03,04,30,2.90
2006,05,03,04,31,2.90
2006,05,03,04,32,2.90
2006,05,03,04,33,2.90
2006,05,03,04,34,2.90
2006,05,03,04,35,2.90
2006,05,03,04,36,2.90
2006,05,03,04,37,2.90
2006,05,03,04,38,2.90
2006,05,03,04,39,2.90
2006,05,03,04,40,2.90
2006,05,03,04,41,2.90
2006,05,03,04,42,2.90
2006,05,03,04,43,2.90
2006,05,03,04,44,2.90
2006,05,03,04,45,2.90
2006,05,03,04,46,2.90
2006,05,03,04,47,2.90
2006,05,03,04,48,2.90
2006,05,03,04,49,2.90
2006,05,03,04,50,2.90
2006,05,03,04,51,2.90
2006,05,03,04,52,2.90
2006,05,03,04,53,2.90
2006,05,03,04,54,2.90
2006,05,03,04,55,2.90
2006,05,03,04,56,2.90
2006,05,03,04,57,2.90
2006,05,03,04,58,2.90
2006,05,03,04,59,2.90
2006,05,03,05,00,2.90
2006,05,03,05,01,2.90
2006,05,03,05,02,2.90
2006,05,03,05,03,2.90
2006,05,03,05,04,2.90
2006,05,03,05,05,2.90
2006,05,03,05,06,2.90
2006,05,03,05,07,2.90
2006,05,03,05,08,2.90
2006,05,03,05,09,3.10
2006,05,03,05,10,3.10
2006,05,03,05,11,3.10
2006,05,03,05,12,3.10
2006,05,03,05,13,3.10
2006,05,03,05,14,3.10
2006,05,03,05,15,3.10
2006,05,03,05,16,3.10
2006,05,03,05,17,3.10
2006,05,03,05,18,3.10
2006,05,03,05,19,3.10
2006,05,03,05,20,3.10
2006,05,03,05,21,3.10
2006,05,03,05,22,3.10
2006,05,03,05,23,3.10
2006,05,03,05,24,3.10
2006,05,03,05,25,3.10
2006,05,03,05,26,3.10
2006,05,03,05,27,3.00
2006,05,03,05,28,2.90
2006,05,03,05,29,2.90
2006,05,03,05,30,2.90
2006,05,03,05,31,2.90
2006,05,03,05,32,2.90
2006,05,03,05,33,2.90
2006,05,03,05,34,2.90
2006,05,03,05,35,2.90
2006,05,03,05,36,2.80
2006,05,03,05,37,2.80
2006,05,03,05,38,2.80
2006,05,03,05,39,2.80
2006,05,03,05,40,2.80
2006,05,03,05,41,2.80
2006,05,03,05,42,2.80
2006,05,03,05,43,2.80
2006,05,03,05,44,2.80
2006,05,03,05,45,2.80
2006,05,03,05,46,2.80
2006,05,03,05,47,2.80
2006,05,03,05,48,2.80
2006,05,03,05,49,2.80
2006,05,03,05,50,2.80
2006,05,03,05,51,2.80
2006,05,03,05,52,2.70
2006,05,03,05,53,2.70
2006,05,03,05,54,2.70
2006,05,03,05,55,2.70
2006,05,03,05,56,2.70
2006,05,03,05,57,2.70
2006,05,03,05,58,2.70
2006,05,03,05,59,2.70
2006,05,03,06,00,2.70
2006,05,03,06,01,2.80
2006,05,03,06,02,2.80
2006,05,03,06,03,2.80
2006,05,03,06,04,2.80
2006,05,03,06,05,2.80
2006,05,03,06,06,2.80
2006,05,03,06,07,2.80
2006,05,03,06,08,2.80
2006,05,03,06,09,2.80
2006,05,03,06,10,2.80
2006,05,03,06,11,2.80
2006,05,03,06,12,2.80
2006,05,03,06,13,2.80
2006,05,03,06,14,2.80
2006,05,03,06,15,2.80
2006,05,03,06,16,2.80
2006,05,03,06,17,2.80
2006,05,03,06,18,2.80
2006,05,03,06,19,2.80
2006,05,03,06,20,2.80
2006,05,03,06,21,2.80
2006,05,03,06,22,2.80
2006,05,03,06,23,2.80
2006,05,03,06,24,2.80
2006,05,03,06,25,2.80
2006,05,03,06,26,2.80
2006,05,03,06,27,2.80
2006,05,03,06,28,2.80
2006,05,03,06,29,2.80
2006,05,03,06,30,2.80
2006,05,03,06,31,2.80
2006,05,03,06,32,2.90
2006,05,03,06,33,2.90
2006,05,03,06,34,2.90
2006,05,03,06,35,2.90
2006,05,03,06,36,2.90
2006,05,03,06,37,2.90
2006,05,03,06,38,2.90
2006,05,03,06,39,2.90
2006,05,03,06,40,2.90
2006,05,03,06,41,2.90
2006,05,03,06,42,2.90
2006,05,03,06,43,3.00
2006,05,03,06,44,3.10
2006,05,03,06,45,3.10
2006,05,03,06,46,3.10
2006,05,03,06,47,3.10
2006,05,03,06,48,3.20
2006,05,03,06,49,3.20
2006,05,03,06,50,3.20
2006,05,03,06,51,3.30
2006,05,03,06,52,3.30
2006,05,03,06,53,3.30
2006,05,03,06,54,3.30
2006,05,03,06,55,3.30
2006,05,03,06,56,3.30
2006,05,03,06,57,3.30
2006,05,03,06,58,3.30
2006,05,03,06,59,3.40
2006,05,03,07,00,3.40
2006,05,03,07,01,3.40
2006,05,03,07,02,3.50
2006,05,03,07,03,3.50
2006,05,03,07,04,3.50
2006,05,03,07,05,3.60
2006,05,03,07,06,3.60
2006,05,03,07,07,3.70
2006,05,03,07,08,3.70
2006,05,03,07,09,3.80
2006,05,03,07,10,3.80
2006,05,03,07,11,3.90
2006,05,03,07,12,3.90
2006,05,03,07,13,4.00
2006,05,03,07,14,4.00
2006,05,03,07,15,4.10
2006,05,03,07,16,4.20
2006,05,03,07,17,4.30
2006,05,03,07,18,4.40
2006,05,03,07,19,4.50
2006,05,03,07,20,4.50
2006,05,03,07,21,4.60
2006,05,03,07,22,4.60
2006,05,03,07,23,4.70
2006,05,03,07,24,4.80
2006,05,03,07,25,4.80
2006,05,03,07,26,4.90
2006,05,03,07,27,4.90
2006,05,03,07,28,5.00
2006,05,03,07,29,5.10
2006,05,03,07,30,5.10
2006,05,03,07,31,5.20
2006,05,03,07,32,5.30
2006,05,03,07,33,5.30
2006,05,03,07,34,5.40
2006,05,03,07,35,5.50
2006,05,03,07,36,5.50
2006,05,03,07,37,5.60
2006,05,03,07,38,5.70
2006,05,03,07,39,5.70
2006,05,03,07,40,5.80
2006,05,03,07,41,5.90
2006,05,03,07,42,6.00
2006,05,03,07,43,6.10
2006,05,03,07,44,6.20
2006,05,03,07,45,6.40
2006,05,03,07,46,6.40
2006,05,03,07,47,6.60
2006,05,03,07,48,6.70
2006,05,03,07,49,6.80
2006,05,03,07,50,6.90
2006,05,03,07,51,7.10
2006,05,03,07,52,7.30
2006,05,03,07,53,7.50
2006,05,03,07,54,7.80
2006,05,03,07,55,8.20
2006,05,03,07,56,8.50
2006,05,03,07,57,8.80
2006,05,03,07,58,9.10
2006,05,03,07,59,9.30
2006,05,03,08,00,9.50
2006,05,03,08,01,9.70
2006,05,03,08,02,9.80
2006,05,03,08,03,10.00
2006,05,03,08,04,10.10
2006,05,03,08,05,10.20
2006,05,03,08,06,10.30
2006,05,03,08,07,10.40
2006,05,03,08,08,10.40
2006,05,03,08,09,10.50
2006,05,03,08,10,10.60
2006,05,03,08,11,10.60
2006,05,03,08,12,10.70
2006,05,03,08,13,10.70
2006,05,03,08,14,10.70
2006,05,03,08,15,10.70
2006,05,03,08,16,10.70
2006,05,03,08,17,10.80
2006,05,03,08,18,10.80
2006,05,03,08,19,10.80
2006,05,03,08,20,10.90
2006,05,03,08,21,10.90
2006,05,03,08,22,10.90
2006,05,03,08,23,10.90
2006,05,03,08,24,10.90
2006,05,03,08,25,10.90
2006,05,03,08,26,11.10
2006,05,03,08,27,11.10
2006,05,03,08,28,11.20
2006,05,03,08,29,11.20
2006,05,03,08,30,11.20
2006,05,03,08,31,11.30
2006,05,03,08,32,11.30
2006,05,03,08,33,11.30
2006,05,03,08,34,11.30
2006,05,03,08,35,11.30
2006,05,03,08,36,11.20
2006,05,03,08,37,11.20
2006,05,03,08,38,11.20
2006,05,03,08,39,11.20
2006,05,03,08,40,11.20
2006,05,03,08,41,11.30
2006,05,03,08,42,11.30
2006,05,03,08,43,11.30
2006,05,03,08,44,11.30
2006,05,03,08,45,11.30
2006,05,03,08,46,11.30
2006,05,03,08,47,11.20
2006,05,03,08,48,11.20
2006,05,03,08,49,11.20
2006,05,03,08,50,11.20
2006,05,03,08,51,11.20
2006,05,03,08,52,11.20
2006,05,03,08,53,11.30
2006,05,03,08,54,11.30
2006,05,03,08,55,11.40
2006,05,03,08,56,11.40
2006,05,03,08,57,11.40
2006,05,03,08,58,11.40
2006,05,03,08,59,11.50
2006,05,03,09,00,11.60
2006,05,03,09,01,11.60
2006,05,03,09,02,11.70
2006,05,03,09,03,11.70
2006,05,03,09,04,11.70
2006,05,03,09,05,11.80
2006,05,03,09,06,11.80
2006,05,03,09,07,11.80
2006,05,03,09,08,11.80
2006,05,03,09,09,11.80
2006,05,03,09,10,11.80
2006,05,03,09,11,11.80
2006,05,03,09,12,11.80
2006,05,03,09,13,11.80
2006,05,03,09,14,11.80
2006,05,03,09,15,11.80
2006,05,03,09,16,11.80
2006,05,03,09,17,11.80
2006,05,03,09,18,11.80
2006,05,03,09,19,11.90
2006,05,03,09,20,11.90
2006,05,03,09,21,11.90
2006,05,03,09,22,11.90
2006,05,03,09,23,12.00
2006,05,03,09,24,12.10
2006,05,03,09,25,12.20
2006,05,03,09,26,12.30
2006,05,03,09,27,12.30
2006,05,03,09,28,12.20
2006,05,03,09,29,12.20
2006,05,03,09,30,12.30
2006,05,03,09,31,12.30
2006,05,03,09,32,12.40
2006,05,03,09,33,12.30
2006,05,03,09,34,12.40
2006,05,03,09,35,12.40
2006,05,03,09,36,12.50
2006,05,03,09,37,12.60
2006,05,03,09,38,12.70
2006,05,03,09,39,12.70
2006,05,03,09,40,12.80
2006,05,03,09,41,12.90
2006,05,03,09,42,12.90
2006,05,03,09,43,13.00
2006,05,03,09,44,13.10
2006,05,03,09,45,13.20
2006,05,03,09,46,13.30
2006,05,03,09,47,13.30
2006,05,03,09,48,13.30
2006,05,03,09,49,13.40
2006,05,03,09,50,13.40
2006,05,03,09,51,13.40
2006,05,03,09,52,13.50
2006,05,03,09,53,13.50
2006,05,03,09,54,13.50
2006,05,03,09,55,13.30
2006,05,03,09,56,13.20
2006,05,03,09,57,13.20
2006,05,03,09,58,13.10
2006,05,03,09,59,13.10
2006,05,03,10,00,13.10
2006,05,03,10,01,13.10
2006,05,03,10,02,13.10
2006,05,03,10,03,13.00
2006,05,03,10,04,13.00
2006,05,03,10,05,13.00
2006,05,03,10,06,13.00
2006,05,03,10,07,13.00
2006,05,03,10,08,13.00
2006,05,03,10,09,12.90
2006,05,03,10,10,12.90
2006,05,03,10,11,12.90
2006,05,03,10,12,12.90
2006,05,03,10,13,13.00
2006,05,03,10,14,13.10
2006,05,03,10,15,13.20
2006,05,03,10,16,13.30
2006,05,03,10,17,13.40
2006,05,03,10,18,13.40
2006,05,03,10,19,13.50
2006,05,03,10,20,13.60
2006,05,03,10,21,13.70
2006,05,03,10,22,13.80
2006,05,03,10,23,13.80
2006,05,03,10,24,13.70
2006,05,03,10,25,13.60
2006,05,03,10,26,13.60
2006,05,03,10,27,13.50
2006,05,03,10,28,13.50
2006,05,03,10,29,13.60
2006,05,03,10,30,13.60
2006,05,03,10,31,13.60
2006,05,03,10,32,13.70
2006,05,03,10,33,13.80
2006,05,03,10,34,13.80
2006,05,03,10,35,13.80
2006,05,03,10,36,13.80
2006,05,03,10,37,13.70
2006,05,03,10,38,13.60
2006,05,03,10,39,13.60
2006,05,03,10,40,13.60
2006,05,03,10,41,13.60
2006,05,03,10,42,13.50
2006,05,03,10,43,13.50
2006,05,03,10,44,13.50
2006,05,03,10,45,13.40
2006,05,03,10,46,13.30
2006,05,03,10,47,13.30
2006,05,03,10,48,13.50
2006,05,03,10,49,13.60
2006,05,03,10,50,13.70
2006,05,03,10,51,13.80
2006,05,03,10,52,14.00
2006,05,03,10,53,14.10
2006,05,03,10,54,14.10
2006,05,03,10,55,14.00
2006,05,03,10,56,14.00
2006,05,03,10,57,14.00
2006,05,03,10,58,13.90
2006,05,03,10,59,13.90
2006,05,03,11,00,13.90
2006,05,03,11,01,13.90
2006,05,03,11,02,13.90
2006,05,03,11,03,14.00
2006,05,03,11,04,14.00
2006,05,03,11,05,14.00
2006,05,03,11,06,14.00
2006,05,03,11,07,13.80
2006,05,03,11,08,13.80
2006,05,03,11,09,13.80
2006,05,03,11,10,13.80
2006,05,03,11,11,13.80
2006,05,03,11,12,13.90
2006,05,03,11,13,14.00
2006,05,03,11,14,14.10
2006,05,03,11,15,14.20
2006,05,03,11,16,14.20
2006,05,03,11,17,14.10
2006,05,03,11,18,13.90
2006,05,03,11,19,13.90
2006,05,03,11,20,13.90
2006,05,03,11,21,14.00
2006,05,03,11,22,14.00
2006,05,03,11,23,13.90
2006,05,03,11,24,13.80
2006,05,03,11,25,13.70
2006,05,03,11,26,13.60
2006,05,03,11,27,13.60
2006,05,03,11,28,13.70
2006,05,03,11,29,13.70
2006,05,03,11,30,13.70
2006,05,03,11,31,13.70
2006,05,03,11,32,13.60
2006,05,03,11,33,13.50
2006,05,03,11,34,13.50
2006,05,03,11,35,13.60
2006,05,03,11,36,13.70
2006,05,03,11,37,13.70
2006,05,03,11,38,13.70
2006,05,03,11,39,13.70
2006,05,03,11,40,13.70
2006,05,03,11,41,13.80
2006,05,03,11,42,13.70
2006,05,03,11,43,13.70
2006,05,03,11,44,13.60
2006,05,03,11,45,13.60
2006,05,03,11,46,13.70
2006,05,03,11,47,13.70
2006,05,03,11,48,13.70
2006,05,03,11,49,13.70
2006,05,03,11,50,13.70
2006,05,03,11,51,13.70
2006,05,03,11,52,13.70
2006,05,03,11,53,13.70
2006,05,03,11,54,13.70
2006,05,03,11,55,13.70
2006,05,03,11,56,13.80
2006,05,03,11,57,13.90
2006,05,03,11,58,13.90
2006,05,03,11,59,14.00
2006,05,03,12,00,14.00
2006,05,03,12,01,13.90
2006,05,03,12,02,13.90
2006,05,03,12,03,14.00
2006,05,03,12,04,14.10
2006,05,03,12,05,14.20
2006,05,03,12,06,14.20
2006,05,03,12,07,14.30
2006,05,03,12,08,14.30
2006,05,03,12,09,14.40
2006,05,03,12,10,14.30
2006,05,03,12,11,14.30
2006,05,03,12,12,14.40
2006,05,03,12,13,14.50
2006,05,03,12,14,14.50
2006,05,03,12,15,14.50
2006,05,03,12,16,14.50
2006,05,03,12,17,14.50
2006,05,03,12,18,14.40
2006,05,03,12,19,14.20
2006,05,03,12,20,14.30
2006,05,03,12,21,14.30
2006,05,03,12,22,14.20
2006,05,03,12,23,14.30
2006,05,03,12,24,14.40
2006,05,03,12,25,14.40
2006,05,03,12,26,14.50
2006,05,03,12,27,14.50
2006,05,03,12,28,14.60
2006,05,03,12,29,14.50
2006,05,03,12,30,14.60
2006,05,03,12,31,14.60
2006,05,03,12,32,14.70
2006,05,03,12,33,14.80
2006,05,03,12,34,14.90
2006,05,03,12,35,14.90
2006,05,03,12,36,14.90
2006,05,03,12,37,14.80
2006,05,03,12,38,14.70
2006,05,03,12,39,14.50
2006,05,03,12,40,14.40
2006,05,03,12,41,14.30
2006,05,03,12,42,14.40
2006,05,03,12,43,14.50
2006,05,03,12,44,14.50
2006,05,03,12,45,14.60
2006,05,03,12,46,14.70
2006,05,03,12,47,14.80
2006,05,03,12,48,14.90
2006,05,03,12,49,14.90
2006,05,03,12,50,14.90
2006,05,03,12,51,15.00
2006,05,03,12,52,15.10
2006,05,03,12,53,15.10
2006,05,03,12,54,15.10
2006,05,03,12,55,15.00
2006,05,03,12,56,15.00
2006,05,03,12,57,15.00
2006,05,03,12,58,15.10
2006,05,03,12,59,15.20
2006,05,03,13,00,15.30
2006,05,03,13,01,15.30
2006,05,03,13,02,15.30
2006,05,03,13,03,15.40
2006,05,03,13,04,15.50
2006,05,03,13,05,15.50
2006,05,03,13,06,15.60
2006,05,03,13,07,15.60
2006,05,03,13,08,15.50
2006,05,03,13,09,15.40
2006,05,03,13,10,15.30
2006,05,03,13,11,15.20
2006,05,03,13,12,15.20
2006,05,03,13,13,15.20
2006,05,03,13,14,15.20
2006,05,03,13,15,15.20
2006,05,03,13,16,15.20
2006,05,03,13,17,15.20
2006,05,03,13,18,15.10
2006,05,03,13,19,15.10
2006,05,03,13,20,15.20
2006,05,03,13,21,15.20
2006,05,03,13,22,15.30
2006,05,03,13,23,15.30
2006,05,03,13,24,15.40
2006,05,03,13,25,15.40
2006,05,03,13,26,15.40
2006,05,03,13,27,15.30
2006,05,03,13,28,15.20
2006,05,03,13,29,15.10
2006,05,03,13,30,15.00
2006,05,03,13,31,15.00
2006,05,03,13,32,15.10
2006,05,03,13,33,15.20
2006,05,03,13,34,15.40
2006,05,03,13,35,15.50
2006,05,03,13,36,15.60
2006,05,03,13,37,15.60
2006,05,03,13,38,15.50
2006,05,03,13,39,15.50
2006,05,03,13,40,15.50
2006,05,03,13,41,15.60
2006,05,03,13,42,15.80
2006,05,03,13,43,15.90
2006,05,03,13,44,15.90
2006,05,03,13,45,15.90
2006,05,03,13,46,15.90
2006,05,03,13,47,16.00
2006,05,03,13,48,16.10
2006,05,03,13,49,16.10
2006,05,03,13,50,16.20
2006,05,03,13,51,16.20
2006,05,03,13,52,16.30
2006,05,03,13,53,16.40
2006,05,03,13,54,16.40
2006,05,03,13,55,16.40
2006,05,03,13,56,16.30
2006,05,03,13,57,16.20
2006,05,03,13,58,16.20
2006,05,03,13,59,16.20
2006,05,03,14,00,16.30
2006,05,03,14,01,16.20
2006,05,03,14,02,16.20
2006,05,03,14,03,16.30
2006,05,03,14,04,16.30
2006,05,03,14,05,16.20
2006,05,03,14,06,16.10
2006,05,03,14,07,16.10
2006,05,03,14,08,16.00
2006,05,03,14,09,15.90
2006,05,03,14,10,15.90
2006,05,03,14,11,15.90
2006,05,03,14,12,16.00
2006,05,03,14,13,16.10
2006,05,03,14,14,16.10
2006,05,03,14,15,16.20
2006,05,03,14,16,16.30
2006,05,03,14,17,16.30
2006,05,03,14,18,16.20
2006,05,03,14,19,16.10
2006,05,03,14,20,15.90
2006,05,03,14,21,15.80
2006,05,03,14,22,15.80
2006,05,03,14,23,15.80
2006,05,03,14,24,15.80
2006,05,03,14,25,15.80
2006,05,03,14,26,15.80
2006,05,03,14,27,15.80
2006,05,03,14,28,15.80
2006,05,03,14,29,15.80
2006,05,03,14,30,15.80
2006,05,03,14,31,15.90
2006,05,03,14,32,16.00
2006,05,03,14,33,16.10
2006,05,03,14,34,16.20
2006,05,03,14,35,16.20
2006,05,03,14,36,16.20
2006,05,03,14,37,16.30
2006,05,03,14,38,16.20
2006,05,03,14,39,16.20
2006,05,03,14,40,16.20
2006,05,03,14,41,16.30
2006,05,03,14,42,16.50
2006,05,03,14,43,16.60
2006,05,03,14,44,16.70
2006,05,03,14,45,16.70
2006,05,03,14,46,16.70
2006,05,03,14,47,16.50
2006,05,03,14,48,16.40
2006,05,03,14,49,16.20
2006,05,03,14,50,16.10
2006,05,03,14,51,16.10
2006,05,03,14,52,16.10
2006,05,03,14,53,16.10
2006,05,03,14,54,16.20
2006,05,03,14,55,16.30
2006,05,03,14,56,16.30
2006,05,03,14,57,16.40
2006,05,03,14,58,16.50
2006,05,03,14,59,16.60
2006,05,03,15,00,16.70
2006,05,03,15,01,16.60
2006,05,03,15,02,16.60
2006,05,03,15,03,16.60
2006,05,03,15,04,16.60
2006,05,03,15,05,16.70
2006,05,03,15,06,16.70
2006,05,03,15,07,16.70
2006,05,03,15,08,16.70
2006,05,03,15,09,16.80
2006,05,03,15,10,16.80
2006,05,03,15,11,16.90
2006,05,03,15,12,17.00
2006,05,03,15,13,17.00
2006,05,03,15,14,17.00
2006,05,03,15,15,17.10
2006,05,03,15,16,17.10
2006,05,03,15,17,17.10
2006,05,03,15,18,17.20
2006,05,03,15,19,17.30
2006,05,03,15,20,17.30
2006,05,03,15,21,17.30
2006,05,03,15,22,17.30
2006,05,03,15,23,17.30
2006,05,03,15,24,17.30
2006,05,03,15,25,17.20
2006,05,03,15,26,17.10
2006,05,03,15,27,17.00
2006,05,03,15,28,16.90
2006,05,03,15,29,16.90
2006,05,03,15,30,16.90
2006,05,03,15,31,17.00
2006,05,03,15,32,17.00
2006,05,03,15,33,17.00
2006,05,03,15,34,16.90
2006,05,03,15,35,16.90
2006,05,03,15,36,16.90
2006,05,03,15,37,16.80
2006,05,03,15,38,16.80
2006,05,03,15,39,16.80
2006,05,03,15,40,16.70
2006,05,03,15,41,16.70
2006,05,03,15,42,16.70
2006,05,03,15,43,16.60
2006,05,03,15,44,16.60
2006,05,03,15,45,16.60
2006,05,03,15,46,16.50
2006,05,03,15,47,16.40
2006,05,03,15,48,16.40
2006,05,03,15,49,16.40
2006,05,03,15,50,16.50
2006,05,03,15,51,16.60
2006,05,03,15,52,16.70
2006,05,03,15,53,16.70
2006,05,03,15,54,16.70
2006,05,03,15,55,16.70
2006,05,03,15,56,16.70
2006,05,03,15,57,16.70
2006,05,03,15,58,16.80
2006,05,03,15,59,16.80
2006,05,03,16,00,16.90
2006,05,03,16,01,16.90
2006,05,03,16,02,16.90
2006,05,03,16,03,16.80
2006,05,03,16,04,16.70
2006,05,03,16,05,16.70
2006,05,03,16,06,16.70
2006,05,03,16,07,16.70
2006,05,03,16,08,16.70
2006,05,03,16,09,16.70
2006,05,03,16,10,16.70
2006,05,03,16,11,16.70
2006,05,03,16,12,16.70
2006,05,03,16,13,16.70
2006,05,03,16,14,16.70
2006,05,03,16,15,16.60
2006,05,03,16,16,16.50
2006,05,03,16,17,16.40
2006,05,03,16,18,16.40
2006,05,03,16,19,16.40
2006,05,03,16,20,16.40
2006,05,03,16,21,16.40
2006,05,03,16,22,16.50
2006,05,03,16,23,16.50
2006,05,03,16,24,16.40
2006,05,03,16,25,16.40
2006,05,03,16,26,16.30
2006,05,03,16,27,16.30
2006,05,03,16,28,16.30
2006,05,03,16,29,16.40
2006,05,03,16,30,16.50
2006,05,03,16,31,16.60
2006,05,03,16,32,16.70
2006,05,03,16,33,16.70
2006,05,03,16,34,16.70
2006,05,03,16,35,16.70
2006,05,03,16,36,16.70
2006,05,03,16,37,16.70
2006,05,03,16,38,16.70
2006,05,03,16,39,16.70
2006,05,03,16,40,16.70
2006,05,03,16,41,16.60
2006,05,03,16,42,16.60
2006,05,03,16,43,16.70
2006,05,03,16,44,16.70
2006,05,03,16,45,16.70
2006,05,03,16,46,16.80
2006,05,03,16,47,16.80
2006,05,03,16,48,16.80
2006,05,03,16,49,16.90
2006,05,03,16,50,17.00
2006,05,03,16,51,17.00
2006,05,03,16,52,17.00
2006,05,03,16,53,17.00
2006,05,03,16,54,17.00
2006,05,03,16,55,17.00
2006,05,03,16,56,16.90
2006,05,03,16,57,16.80
2006,05,03,16,58,16.70
2006,05,03,16,59,16.70
2006,05,03,17,00,16.70
2006,05,03,17,01,16.70
2006,05,03,17,02,16.70
2006,05,03,17,03,16.70
2006,05,03,17,04,16.70
2006,05,03,17,05,16.70
2006,05,03,17,06,16.80
2006,05,03,17,07,16.80
2006,05,03,17,08,16.90
2006,05,03,17,09,16.90
2006,05,03,17,10,16.90
2006,05,03,17,11,16.90
2006,05,03,17,12,16.90
2006,05,03,17,13,16.90
2006,05,03,17,14,16.90
2006,05,03,17,15,16.90
2006,05,03,17,16,16.90
2006,05,03,17,17,17.00
2006,05,03,17,18,17.00
2006,05,03,17,19,17.00
2006,05,03,17,20,17.00
2006,05,03,17,21,16.90
2006,05,03,17,22,16.90
2006,05,03,17,23,16.90
2006,05,03,17,24,16.90
2006,05,03,17,25,16.90
2006,05,03,17,26,17.00
2006,05,03,17,27,17.10
2006,05,03,17,28,17.10
2006,05,03,17,29,17.10
2006,05,03,17,30,17.20
2006,05,03,17,31,17.20
2006,05,03,17,32,17.20
2006,05,03,17,33,17.20
2006,05,03,17,34,17.20
2006,05,03,17,35,17.20
2006,05,03,17,36,17.20
2006,05,03,17,37,17.20
2006,05,03,17,38,17.20
2006,05,03,17,39,17.20
2006,05,03,17,40,17.20